STARLINK-2484 (48141 NORAD) Tracking and Keplerian Element Data

This shows tracking and keplerian element data for the satellite.

Feedback or suggestion? Click here.




ElementValue
Catalog48141
NameSTARLINK-2484
Epoch Orbit180
Epoch Day136.83334491
Epoch Year2021
RAAN146.2761
Inclination53.0463
Eccentricity0.0001167
Argument of Perigee54.8086
Mean Anonmoly235.445
Mean Motion15.55274864
Decay Rate-0.01085734
L11 48141U 21027BB 21136.83334491 -.01085734 00000-0 -17360-1 0 9996
L22 48141 53.0463 146.2761 0001167 54.8086 235.4450 15.55274864 1803

Live tracking and technical data element details for STARLINK-2484 (NORAD 48141). STARLINK-2484 can be tracked NOW for your location showing map with azimuth and elevation plus other details from your city location.

Track the satellite on the map from your city or location and see movement details for azimuth, elevation, latitude, longitude, range, height, and movement on the map or in text.







IsCatalogInMostPopularTable: catalog: 48141, numindb: 15
Update: records affected: 1



GetName: 48141 STARLINK-2484

Hit Count: updated at: Mon, 17 May 2021 15:28:59 GMT